This demonstration page uses our WeatherBlox Daily Observations layout. Learn more.

Left ArrowRight Arrow

39.29038, -76.61219

Hourly Observations for January 6, 2017

Temp ( °F °C ) Dew Point ( °F °C ) Humidity (%) Winds ( mph kmh ) Pressure ( in mb ) Visibility ( mi km ) Precip ( " mm )
12:54 am 00:54 undefined 33 0.6 27 -2.8 78 78 undefined N/A 29.93 1014 N/A 0.00 0.00
1:54 am 01:54 undefined 32 0 27 -2.8 82 82 undefined N/A 29.94 1014 N/A 0.01 0.25
2:54 am 02:54 undefined 32 0 25 -3.9 75 75 undefined N/A 29.94 1014 N/A 0.01 0.25
3:54 am 03:54 undefined 32 0 24 -4.4 73 73 undefined N/A 29.93 1014 N/A 0.00 0.00
4:54 am 04:54 undefined 32 0 21 -6.1 64 64 undefined N/A 29.95 1014 N/A 0.00 0.00
5:54 am 05:54 undefined 31 -0.6 22 -5.6 69 69 undefined N/A 29.97 1015 N/A 0.00 0.00
6:54 am 06:54 undefined 31 -0.6 21 -6.1 67 67 undefined N/A 30.00 1016 N/A 0.00 0.00
7:54 am 07:54 undefined 31 -0.6 19 -7.2 61 61 undefined N/A 30.06 1018 N/A 0.00 0.00
8:54 am 08:54 undefined 31 -0.6 19 -7.2 61 61 undefined N/A 30.08 1019 N/A 0.00 0.00
9:54 am 09:54 undefined 31 -0.6 17 -8.3 56 56 undefined N/A 30.10 1019 N/A 0.00 0.00
10:54 am 10:54 undefined 32 0 16 -8.9 52 52 undefined N/A 30.14 1021 N/A 0.00 0.00
11:54 am 11:54 undefined 31 -0.6 14 -10 49 49 undefined N/A 30.12 1020 N/A 0.00 0.00
12:54 pm 12:54 undefined 32 0 14 -10 47 47 undefined N/A 30.13 1020 N/A 0.00 0.00
1:54 pm 13:54 undefined 32 0 11 -11.7 41 41 undefined N/A 30.12 1020 N/A 0.00 0.00
2:54 pm 14:54 undefined 31 -0.6 10 -12.2 42 42 undefined N/A 30.13 1020 N/A 0.00 0.00
3:54 pm 15:54 undefined 31 -0.6 10 -12.2 42 42 undefined N/A 30.16 1021 N/A 0.00 0.00
4:54 pm 16:54 undefined 30 -1.1 8 -13.3 39 39 undefined N/A 30.19 1022 N/A 0.00 0.00
5:54 pm 17:54 undefined 30 -1.1 9 -12.8 41 41 undefined N/A 30.22 1023 N/A 0.00 0.00
6:54 pm 18:54 undefined 29 -1.7 8 -13.3 41 41 undefined N/A 30.24 1024 N/A 0.00 0.00
7:54 pm 19:54 undefined 29 -1.7 7 -13.9 39 39 undefined N/A 30.25 1025 N/A 0.00 0.00
8:54 pm 20:54 undefined 28 -2.2 6 -14.4 39 39 undefined N/A 30.26 1025 N/A 0.00 0.00
9:54 pm 21:54 undefined 28 -2.2 6 -14.4 39 39 undefined N/A 30.34 1028 N/A 0.00 0.00
10:10 pm 22:10 undefined 27 -2.8 6 -14.4 41 41 undefined N/A 30.36 1028 N/A 0.00 0.00
10:54 pm 22:54 undefined 27 -2.8 6 -14.4 41 41 undefined N/A 30.27 1025 N/A 0.00 0.00
11:54 pm 23:54 undefined 27 -2.8 7 -13.9 43 43 undefined N/A 30.27 1025 N/A 0.00 0.00

Powered by AerisWeather